[[{"header":{"parameterUnit":"m.s-1","parameterCategory":1,"la1":30.2991,"la2":30.254,"lo1":-89.0895,"lo2":-89.0444,"dy":0.0017,"dx":0.0017,"nx":28,"ny":28,"refTime":"2024-08-21T09:00:00:Z","depth":0,"parameterNumber":2,"parameterNumberName":"U-component_of_WINDS"},"data":[0,0,0,0,0,0,0,0,0,0,0,0,0,0,0,0,0,0,0,0,0,0,0,0,0,0,0,0,0,0,0,0,0,0,0,0,0,0,0,0,0,0,0,0,0,0,0,0,0,0,0,0,0,0,0,0,0,0,-4.3673,-4.3674,0,-4.3746,-4.3747,-4.3747,-4.367,-4.3668,-4.3665,-4.3662,-4.3734,-4.3738,-4.3743,0,0,0,0,0,0,0,0,0,0,0,0,0,-4.3464,-4.3468,-4.3673,-4.3674,-4.3675,-4.3746,-4.3747,-4.3748,-4.3671,-4.3667,-4.3664,-4.366,-4.3732,-4.3738,-4.3743,0,0,0,0,0,0,0,0,0,0,0,0,0,-4.3548,-4.347,-4.3673,-4.3645,-4.3643,-4.3745,-4.3747,-4.3748,-4.3672,-4.3667,-4.3663,-4.3659,-4.373,-4.3737,-4.3744,-4.3876,0,0,-4.3765,-4.3768,0,0,0,0,0,0,0,0,-4.3543,-4.3555,-4.3648,-4.3647,-4.3645,-4.3695,-4.3699,-4.3791,-4.3673,-4.3661,-4.3662,-4.3657,-4.3724,-4.3731,-4.3755,-4.3879,-4.3882,-4.3766,-4.377,-4.3773,-4.3775,0,0,0,0,0,0,0,-4.3537,-4.3552,-4.3701,-4.365,-4.3648,-4.3628,-4.3635,-4.3716,-4.3716,-4.3662,-4.3656,-4.3666,-4.3722,-4.3748,-4.3756,-4.3883,-4.3766,-4.3772,-4.3776,-4.3779,-4.4118,-4.4123,0,0,0,0,0,0,-4.3535,-4.3547,-4.3699,-4.3704,-4.3582,-4.3635,-4.3643,-4.3683,-4.3715,-4.3716,-4.367,-4.3662,-4.3738,-4.3748,-4.3758,-4.3912,-4.3773,-4.378,-4.3784,-4.4114,-4.4119,-4.4125,0,0,0,0,0,0,-4.3531,-4.3549,-4.3696,-4.3624,-4.3641,-4.3644,-4.3689,-4.3687,-4.3712,-4.3721,-4.3721,-4.3696,-4.3735,-4.3748,-4.3847,-4.3914,-4.3783,-4.3789,-4.4108,-4.4115,-4.4122,-4.4224,0,0,0,0,0,0,-4.3525,-4.3548,-4.3599,-4.3626,-4.3646,-4.3785,-4.3694,-4.3692,-4.3725,-4.3716,-4.3746,-4.3747,-4.3733,-4.3837,-4.3854,-4.3921,-4.3795,-4.4102,-4.4111,-4.412,-4.4214,-4.4233,-4.425,0,0,0,0,0,-4.3518,-4.3624,-4.3602,-4.3621,-4.3709,-4.3789,-4.38,-4.3783,-4.3731,-4.3781,-4.3787,-4.3746,-4.3905,-4.3848,-4.3866,-4.3936,-4.4097,-4.4109,-4.4119,-4.4206,-4.423,-4.4249,0,0,0,0,0,0,-4.3604,-4.3627,-4.3603,-4.3721,-4.3754,-4.3776,-4.3838,-4.3808,-4.3855,-4.3844,-4.382,-4.3828,-4.3932,-4.3945,-4.3881,-4.4065,-4.3992,-4.4008,-4.4052,-4.4075,-4.4092,-4.4085,-4.3801,0,0,0,0,0,-4.3637,-4.3701,-4.3718,-4.3821,-4.3839,-4.3836,-4.387,-4.3854,-4.3887,-4.39,-4.3913,-4.3945,-4.4002,-4.404,-4.4093,-4.4217,-4.4221,-4.4275,-4.4293,-4.4307,-4.4319,-4.4384,-4.4407,-4.416,-4.416,-4.416,0,0,-4.3705,-4.3726,-4.3767,-4.3838,-4.3862,-4.3927,-4.3848,-4.3921,-4.3968,-4.391,-4.4003,-4.4015,-4.4049,-4.4161,-4.4211,-4.4175,-4.4389,-4.4321,-4.4333,-4.4337,-4.4397,-4.4421,-4.4441,-4.4168,-4.4166,-4.4165,0,0,-4.3861,-4.3885,-4.3972,-4.3998,-4.4035,-4.4033,-4.4054,-4.4081,-4.4086,-4.4181,-4.4138,-4.4195,-4.4294,-4.4319,-4.4345,-4.4514,-4.4476,-4.4532,-4.4623,-4.4687,-4.4706,-4.4723,-4.478,-4.4801,-4.4545,-4.4545,-4.4545,0,-4.394,-4.4038,-4.4021,-4.4096,-4.4128,-4.4081,-4.4167,-4.4193,-4.4245,-4.4267,-4.4227,-4.435,-4.437,-4.4486,-4.4527,-4.4551,-4.4573,-4.4526,-4.4705,-4.4722,-4.4738,-4.4791,-4.4813,-4.4551,-4.4551,-4.455,-4.4549,0,-4.4132,-4.4201,-4.4267,-4.4319,-4.4359,-4.444,-4.4433,-4.4476,-4.4457,-4.4459,-4.4555,-4.4578,-4.4634,-4.4662,-4.4644,-4.4775,-4.4751,-4.4709,-4.4634,-4.4768,-4.4818,-4.4838,-4.456,-4.4558,-4.4556,-4.4555,0,0,-4.434,-4.4384,-4.4408,-4.443,-4.4469,-4.4521,-4.46,-4.4656,-4.4691,-4.473,-4.4793,-4.488,-4.4841,-4.487,-4.4856,-4.4912,-4.5041,-4.4862,-4.4863,-4.4891,-4.5184,-4.5212,-4.5236,-4.5018,-4.5022,-4.5025,-4.5179,0,-4.4495,-4.4632,-4.462,-4.4749,-4.4811,-4.4768,-4.4837,-4.4867,-4.4872,-4.4925,-4.493,-4.499,-4.4936,-4.4953,-4.5007,-4.5013,-4.5098,-4.5003,-4.5075,-4.5077,-4.5063,-4.5263,-4.5294,-4.5438,-4.5199,-4.5203,-4.5205,0,-4.4693,-4.4739,-4.4875,-4.4903,-4.4928,-4.499,-4.504,-4.5092,-4.5125,-4.5125,-4.516,-4.5135,-4.5214,-4.5141,-4.5248,-4.5183,-4.5213,-4.5221,-4.5226,-4.5228,-4.5146,-4.5267,-4.5483,-4.5503,-4.5236,-4.5234,-4.5232,0,-4.4826,-4.4923,-4.5016,-4.5037,-4.5074,-4.5118,-4.5135,-4.5165,-4.5199,-4.5243,-4.5264,-4.5318,-4.5345,-4.5387,-4.5377,-4.5326,-4.5485,-4.5412,-4.5484,-4.5485,-4.5516,-4.5513,-4.5736,-4.5543,-4.5542,-4.5542,-4.5541,0,-4.4997,-4.5081,-4.5076,-4.5133,-4.5226,-4.5211,-4.5303,-4.5315,-4.5342,-4.5399,-4.5367,-4.5421,-4.5407,-4.5461,-4.5455,-4.5543,-4.5557,-4.5557,-4.5553,-4.5557,-4.5557,-4.5572,-4.556,-4.5548,-4.5546,-4.5545,-4.5544,0,-4.516,-4.5161,-4.5259,-4.5287,-4.5295,-4.5362,-4.5385,-4.5438,-4.5442,-4.5515,-4.5531,-4.5536,-4.5598,-4.5594,-4.5664,-4.566,-4.5767,-4.5754,-4.5755,-4.575,-4.5821,-4.5813,-4.6058,-4.6088,-4.588,-4.5882,-4.5884,0,-4.5267,-4.533,-4.5365,-4.5402,-4.5422,-4.5482,-4.5517,-4.5506,-4.5544,-4.5588,-4.5635,-4.5694,-4.574,-4.5842,-4.5851,-4.5904,-4.5889,-4.5972,-4.5896,-4.5898,-4.5885,-4.588,-4.5885,-4.5985,-4.5987,-4.5989,-4.5991,0,-4.5455,-4.5452,-4.5505,-4.5558,-4.5601,-4.5642,-4.5679,-4.5711,-4.5704,-4.5748,-4.5812,-4.5848,-4.592,-4.5978,-4.6029,-4.6046,-4.6016,-4.6015,-4.6034,-4.6036,-4.6032,-4.6031,-4.579,-4.6008,-4.6006,-4.6005,-4.6004,-4.6003,-4.5589,-4.5643,-4.5676,-4.5736,-4.5763,-4.5799,-4.585,-4.5861,-4.5914,-4.5971,-4.5963,-4.6033,-4.6065,-4.6131,-4.6153,-4.6207,-4.6177,-4.6205,-4.6211,-4.6217,-4.6223,-4.6028,-4.6217,-4.6216,-4.6216,-4.6216,-4.6215,0,-4.5772,-4.5792,-4.5847,-4.5901,-4.5947,-4.5919,-4.5959,-4.5999,-4.6062,-4.6096,-4.6142,-4.6215,-4.6272,-4.6287,-4.6341,-4.6382,-4.637,-4.6396,-4.639,-4.6394,-4.6249,-4.6225,-4.6405,-4.6405,-4.6405,-4.6405,-4.6405,-4.6405,-4.5872,-4.5961,-4.5963,-4.6065,-4.6084,-4.6153,-4.6178,-4.6211,-4.6237,-4.6319,-4.6367,-4.6377,-4.6403,-4.646,-4.651,-4.6513,-4.6533,-4.6564,-4.6561,-4.6424,-4.6405,-4.6386,-4.6364,-4.657,-4.657,-4.6701,-4.6703,-4.6703]},{"header":{"parameterUnit":"m.s-1","parameterCategory":1,"la1":30.2991,"la2":30.254,"lo1":-89.0895,"lo2":-89.0444,"dy":0.0017,"dx":0.0017,"nx":28,"ny":28,"refTime":"2024-08-21T09:00:00:Z","depth":0,"parameterNumber":3,"parameterNumberName":"V-component_of_WINDS"},"data":[0,0,0,0,0,0,0,0,0,0,0,0,0,0,0,0,0,0,0,0,0,0,0,0,0,0,0,0,0,0,0,0,0,0,0,0,0,0,0,0,0,0,0,0,0,0,0,0,0,0,0,0,0,0,0,0,0,0,-1.4799,-1.48,0,-1.4894,-1.4895,-1.4896,-1.4936,-1.4936,-1.4936,-1.4936,-1.503,-1.5032,-1.5035,0,0,0,0,0,0,0,0,0,0,0,0,0,-1.4647,-1.465,-1.4799,-1.48,-1.4802,-1.4894,-1.4895,-1.4897,-1.4936,-1.4936,-1.4936,-1.4936,-1.5029,-1.5032,-1.5035,0,0,0,0,0,0,0,0,0,0,0,0,0,-1.4725,-1.465,-1.4799,-1.4833,-1.4837,-1.4894,-1.4895,-1.4897,-1.4936,-1.4936,-1.4936,-1.4936,-1.5028,-1.5032,-1.5035,-1.5065,0,0,-1.5048,-1.5049,0,0,0,0,0,0,0,0,-1.472,-1.473,-1.4826,-1.483,-1.4835,-1.4903,-1.4876,-1.4953,-1.4936,-1.4898,-1.4936,-1.4935,-1.4988,-1.4995,-1.5013,-1.507,-1.5074,-1.5048,-1.505,-1.5052,-1.5053,0,0,0,0,0,0,0,-1.4715,-1.4726,-1.4837,-1.4828,-1.4833,-1.4841,-1.4852,-1.4891,-1.4943,-1.4902,-1.4905,-1.4916,-1.499,-1.5009,-1.5016,-1.5075,-1.5048,-1.5051,-1.5054,-1.5055,-1.5159,-1.5159,0,0,0,0,0,0,-1.4704,-1.4721,-1.4834,-1.484,-1.4776,-1.4844,-1.4856,-1.4881,-1.4943,-1.4952,-1.4916,-1.4917,-1.5002,-1.5011,-1.5019,-1.5057,-1.5052,-1.5056,-1.5058,-1.5158,-1.5159,-1.5159,0,0,0,0,0,0,-1.4701,-1.4714,-1.483,-1.4781,-1.4797,-1.4847,-1.4875,-1.4883,-1.4903,-1.4954,-1.4963,-1.4926,-1.5003,-1.5013,-1.5053,-1.5061,-1.5058,-1.5061,-1.5158,-1.5158,-1.5159,-1.5134,0,0,0,0,0,0,-1.4696,-1.4713,-1.4726,-1.4781,-1.4799,-1.4864,-1.4876,-1.4886,-1.491,-1.4913,-1.4966,-1.4974,-1.5003,-1.5047,-1.5057,-1.5066,-1.5064,-1.5157,-1.5158,-1.5159,-1.5134,-1.5134,-1.5133,0,0,0,0,0,-1.4691,-1.4715,-1.4726,-1.474,-1.4817,-1.4865,-1.4875,-1.4908,-1.4911,-1.4924,-1.4955,-1.4973,-1.5058,-1.5051,-1.5063,-1.5073,-1.5157,-1.5158,-1.5159,-1.5135,-1.5134,-1.5133,0,0,0,0,0,0,-1.4658,-1.4723,-1.4736,-1.4779,-1.4816,-1.4871,-1.4889,-1.4906,-1.4943,-1.4943,-1.4982,-1.4994,-1.503,-1.5055,-1.5046,-1.5104,-1.5109,-1.5112,-1.5086,-1.5086,-1.5085,-1.5079,-1.5068,0,0,0,0,0,-1.4656,-1.469,-1.4744,-1.4777,-1.4795,-1.4838,-1.486,-1.4883,-1.4922,-1.4938,-1.4973,-1.5009,-1.5044,-1.5066,-1.5101,-1.5138,-1.5149,-1.515,-1.5149,-1.5149,-1.5151,-1.517,-1.5171,-1.5162,-1.5162,-1.5162,0,0,-1.4652,-1.4691,-1.4711,-1.4771,-1.4803,-1.4836,-1.4851,-1.4886,-1.4911,-1.4943,-1.4983,-1.5009,-1.5052,-1.509,-1.5108,-1.5112,-1.5156,-1.515,-1.5149,-1.5152,-1.5171,-1.5172,-1.5173,-1.5162,-1.5162,-1.5162,0,0,-1.4661,-1.4695,-1.4725,-1.4756,-1.4803,-1.4832,-1.4838,-1.4891,-1.491,-1.4951,-1.4975,-1.5003,-1.5063,-1.5092,-1.5115,-1.5132,-1.5149,-1.5142,-1.5139,-1.5157,-1.5158,-1.5159,-1.5165,-1.5166,-1.5145,-1.5144,-1.5144,0,-1.465,-1.4703,-1.4738,-1.4772,-1.4797,-1.4827,-1.4857,-1.4885,-1.494,-1.4956,-1.4959,-1.5034,-1.5065,-1.5109,-1.5113,-1.5131,-1.5139,-1.5137,-1.5155,-1.5157,-1.5158,-1.5164,-1.5166,-1.5143,-1.5144,-1.5144,-1.5144,0,-1.4685,-1.4721,-1.4739,-1.4793,-1.482,-1.4851,-1.489,-1.4913,-1.4932,-1.4959,-1.4999,-1.5037,-1.508,-1.5092,-1.5111,-1.5138,-1.5139,-1.5148,-1.5154,-1.5157,-1.5163,-1.5166,-1.5142,-1.5142,-1.5143,-1.5143,0,0,-1.4679,-1.4751,-1.4757,-1.4781,-1.4834,-1.4861,-1.4892,-1.4935,-1.4953,-1.4989,-1.5016,-1.5064,-1.5073,-1.5099,-1.5121,-1.5137,-1.5147,-1.5144,-1.5146,-1.5143,-1.5178,-1.5171,-1.5173,-1.5158,-1.5158,-1.5159,-1.5174,0,-1.4695,-1.4755,-1.4787,-1.4832,-1.4864,-1.4892,-1.4919,-1.4954,-1.4979,-1.5009,-1.5037,-1.5071,-1.508,-1.5095,-1.5112,-1.5142,-1.5154,-1.5141,-1.5181,-1.5183,-1.5171,-1.5176,-1.5169,-1.5182,-1.5177,-1.5177,-1.5177,0,-1.4723,-1.476,-1.4808,-1.4856,-1.4871,-1.4895,-1.4935,-1.4964,-1.5002,-1.5019,-1.5047,-1.5069,-1.5101,-1.5103,-1.5147,-1.5137,-1.5155,-1.5172,-1.5173,-1.5178,-1.5181,-1.5181,-1.5187,-1.5188,-1.5181,-1.5181,-1.5181,0,-1.4713,-1.4774,-1.4811,-1.483,-1.4887,-1.4903,-1.4927,-1.4965,-1.4988,-1.5022,-1.5037,-1.5074,-1.5095,-1.5122,-1.5153,-1.5152,-1.5193,-1.5198,-1.5207,-1.5206,-1.5215,-1.5214,-1.5223,-1.5226,-1.5226,-1.5226,-1.5226,0,-1.4728,-1.4756,-1.4806,-1.4829,-1.4861,-1.4896,-1.4926,-1.4952,-1.4985,-1.5012,-1.5038,-1.5062,-1.5101,-1.5129,-1.5152,-1.5184,-1.5193,-1.5207,-1.5213,-1.5205,-1.5203,-1.5218,-1.5218,-1.5227,-1.5226,-1.5226,-1.5226,0,-1.4722,-1.4757,-1.4799,-1.4849,-1.4862,-1.4883,-1.4925,-1.4947,-1.4973,-1.5006,-1.5016,-1.5056,-1.5091,-1.5124,-1.517,-1.5185,-1.5217,-1.5225,-1.5205,-1.5208,-1.5215,-1.5214,-1.5234,-1.5238,-1.5237,-1.5237,-1.5237,0,-1.473,-1.4753,-1.4805,-1.4825,-1.4849,-1.4881,-1.4904,-1.4938,-1.4961,-1.5005,-1.5021,-1.5058,-1.5089,-1.5142,-1.5175,-1.521,-1.5218,-1.5223,-1.5224,-1.5215,-1.5218,-1.5217,-1.5218,-1.5222,-1.5222,-1.5222,-1.5222,0,-1.4739,-1.4755,-1.4789,-1.4827,-1.4854,-1.4886,-1.4919,-1.4933,-1.4973,-1.4997,-1.5033,-1.5057,-1.5104,-1.5139,-1.5177,-1.52,-1.5217,-1.5221,-1.5225,-1.5217,-1.5205,-1.5211,-1.5203,-1.5221,-1.5221,-1.5221,-1.5221,-1.5221,-1.4741,-1.4762,-1.4801,-1.4837,-1.4865,-1.4894,-1.4917,-1.4945,-1.4976,-1.5018,-1.5035,-1.5071,-1.5107,-1.516,-1.5182,-1.521,-1.5214,-1.522,-1.5221,-1.5222,-1.522,-1.52,-1.5217,-1.5217,-1.5217,-1.5217,-1.5217,0,-1.4751,-1.4778,-1.481,-1.4855,-1.4882,-1.4896,-1.4932,-1.4954,-1.4986,-1.5018,-1.5048,-1.5088,-1.5122,-1.5157,-1.5192,-1.5207,-1.5216,-1.5215,-1.5215,-1.5219,-1.5215,-1.5208,-1.5208,-1.5208,-1.5208,-1.5208,-1.5208,-1.5208,-1.476,-1.4796,-1.4816,-1.4865,-1.489,-1.4927,-1.4946,-1.4972,-1.4998,-1.5043,-1.5071,-1.5094,-1.5126,-1.5164,-1.5195,-1.5204,-1.5216,-1.5213,-1.5224,-1.5219,-1.522,-1.522,-1.5214,-1.5215,-1.5215,-1.5226,-1.5226,-1.5226]}]]